www.pogodaiklimat.ru

Погода и климат >> Архив погоды >> Индонезия >> Аэропорт Япура


ПОГОДА в Аэропорту Япура

  • Прогноз погоды в Аэропорту Япура
  • Монитор погоды в Аэропорту Япура

АРХИВ ПОГОДЫ в Аэропорту Япура

Время (UTC), дата Ветер
(напр.,м/с)
 
Видим.   Явления Облачность Т
(С)
Тd
(С)
f
(%)
Тe
(С)
Тes
(С)
Комфортность P
(гПа)
Po
(гПа)
Тmin
(С)
Tmax
(С)
R
(мм)
R24
(мм)
S
(см)
15 11.04 штиль 0 6000 м гроза без осадков 10/8 400 м
[Cb cap As op]
+24.4 +22.7 90 +32 +32 очень
душно
1009.2 1006.8 0.0
18 11.04 штиль 0 6000 м слаб. дождь {гроза} 10/8 400 м
[Sc As op]
+24.0 +23.4 96 +32 +32 очень
душно
1009.4 1007.0 7
21 11.04 штиль 0 6000 м 9/6 420 м
[Sc As op Ci sp]
+24.0 +23.4 96 +32 +32 очень
душно
1008.1 1005.7
00 12.04 штиль 0 5000 м мгла 10/8 420 м
[Sc As op]
+23.8 +23.2 96 +32 +32 очень
душно
1008.7 1006.3 +23.6 7
03 12.04 штиль 0 7000 м 8/5 420 м
[Sc Ac trans Ci fib]
+26.2 +24.4 90 +37 +44 очень
душно
1010.4 1008.0
06 12.04 штиль 0 9000 м 5/3 450 м
[Sc As op Ci fib]
+31.4 +24.8 68 +45 +61 опасность
перегрева
1008.7 1006.4
09 12.04 штиль 0 9000 м 6/4 450 м
[Sc Ac trans Ci sp]
+32.6 +25.6 67 +48 +52 опасность
перегрева
1006.6 1004.2
12 12.04 штиль 0 9000 м {дождь} 9/6 400 м
[Sc diur, vesp Ac lent Ci sp]
+24.4 +23.2 93 +33 +33 очень
душно
1008.3 1005.9 +33.4 7
15 12.04 штиль 0 6000 м 10/8 420 м
[Sc As op]
+24.4 +23.2 93 +33 +33 очень
душно
1010.5 1008.1
18 12.04 штиль 0 6000 м 10/8 420 м
[Sc As op]
+24.0 +23.2 95 +32 +32 очень
душно
1010.7 1008.4
21 12.04 штиль 0 5000 м мгла 10/8 420 м
[Sc As op]
+23.2 +22.6 96 +32 +32 очень
душно
1009.9 1007.6
00 13.04 штиль 0 5000 м мгла 9/8 450 м
[Sc As op]
+22.6 +22.3 98 +30 +31 очень
душно
1010.2 1007.8 +22.4 7
03 13.04 штиль 0 7000 м 8/5 480 м
[Sc As op Ci sp]
+29.0 +24.1 75 +40 +48 очень
душно
1011.0 1008.6
06 13.04 штиль 0 8000 м 9/6 450 м
[Cu med, cong As op Ci sp]
+32.0 +23.9 62 +43 +50 опасность
перегрева
1009.5 1007.1
09 13.04 штиль 0 8000 м 9/6 450 м
[Cu med, cong As op Ci sp]
+33.0 +24.1 60 +45 +47 опасность
перегрева
1006.8 1004.4
12 13.04 штиль 0 6000 м 9/6 450 м
[Sc As op Ci sp]
+30.2 +25.6 76 +44 +44 опасность
перегрева
1007.7 1005.4 +33.2
15 13.04 штиль 0 6000 м 9/6 450 м
[Sc As op Ci sp]
+28.4 +25.5 84 +42 +42 опасность
перегрева
1010.3 1007.9
18 13.04 штиль 0 6000 м 10/8 420 м
[Sc As op]
+26.8 +25.1 90 +39 +39 очень
душно
1010.8 1008.2
21 13.04 штиль 0 6000 м 9/6 450 м
[Sc As op Ci sp]
+28.4 +25.5 84 +42 +42 опасность
перегрева
1010.3 1007.9
00 14.04 штиль 0 5000 м мгла 9/6 450 м
[Sc As op Ci sp]
+25.8 +24.9 95 +37 +37 очень
душно
1010.3 1007.8 +22.4
03 14.04 штиль 0 7000 м 9/6 450 м
[Sc As op Ci sp]
+30.0 +25.1 75 +43 +48 опасность
перегрева
1011.6 1009.2
06 14.04 штиль 0 8000 м 9/6 450 м
[Sc As op Ci sp]
+31.6 +25.1 69 +46 +52 опасность
перегрева
1008.8 1006.4
09 14.04 штиль 0 7000 м {гроза} 9/6 450 м
[Sc As op Ci sp]
+29.0 +24.1 75 +40 +42 очень
душно
1006.6 1004.2
12 14.04 штиль 0 6000 м {гроза} 9/6 450 м
[Sc As op Ci sp]
+28.8 +26.0 85 +43 +43 опасность
перегрева
1008.0 1005.6 +32.8
15 14.04 штиль 0 8000 м 9/6 450 м
[Sc As op Ci sp]
+26.8 +25.4 92 +39 +39 очень
душно
1010.5 1008.1
18 14.04 штиль 0 5000 м мгла {дождь} 10/8 420 м
[Sc As op]
+26.2 +25.0 93 +37 +37 очень
душно
1010.7 1008.3 0.3
21 14.04 штиль 0 8000 м 9/6 450 м
[Sc As op Ci sp]
+26.8 +25.4 92 +39 +39 очень
душно
1010.5 1008.1
00 15.04 штиль 0 6000 м 9/6 450 м
[Sc As op Ci sp]
+25.8 +24.9 95 +37 +37 очень
душно
1009.7 1007.3 +25.4 0.3
03 15.04 штиль 0 9000 м 4/3 450 м
[Sc As op Ci fib]
+29.0 +24.4 76 +41 +54 опасность
перегрева
1010.9 1008.6
06 15.04 штиль 0 9000 м 6/6 420 м
[Sc As op Ci fib]
+33.2 +25.3 63 +47 +58 опасность
перегрева
1008.6 1006.2
09 15.04 штиль 0 9000 м гроза без осадков 9/8 400 м
[Cu Sc As op Ci fib]
+28.0 +23.9 78 +39 +40 очень
душно
1006.8 1004.4
12 15.04 штиль 0 9000 м 6/5 420 м
[Cu med, cong As op Ci fib]
+27.8 +24.9 84 +40 +40 очень
душно
1007.7 1005.3 +34.2 0.0
15 15.04 штиль 0 6000 м 10/8 420 м
[Sc As op]
+27.0 +25.0 89 +39 +39 очень
душно
1009.7 1007.4
18 15.04 штиль 0 6000 м 10/8 420 м
[Sc As op]
+26.2 +24.7 91 +37 +37 очень
душно
1010.4 1008.1
21 15.04 штиль 0 6000 м 9/6 450 м
[Sc As op Ci sp]
+25.6 +24.5 94 +36 +36 очень
душно
1008.0 1005.6
00 16.04 штиль 0 5000 м мгла 9/6 450 м
[Sc As op Ci sp]
+25.6 +24.7 95 +36 +36 очень
душно
1009.9 1007.4 +25.0 0.0
03 16.04 ЮВ 3 7000 м слаб. дождь 9/6 420 м
[Cu med, cong As op Ci sp]
+27.0 +22 +25 комфорт 1011.4 1009.1 2
06 16.04 штиль 0 9000 м в посл. час дождь {гроза} 10/8 400 м
[Cb cap As op Ci fib]
+26.2 +25.6 97 +39 +41 очень
душно
1009.5 1007.1 22
09 16.04 штиль 0 9000 м 10/8 400 м
[Sc diur, vesp As op Ci sp]
+26.8 +25.7 94 +40 +40 очень
душно
1006.8 1004.4
12 16.04 штиль 0 9000 м {дождь} 10/8 400 м
[Sc As op Ci sp]
+26.0 +25.1 95 +37 +37 очень
душно
1008.5 1006.1 +30.6 0.0
15 16.04 штиль 0 6000 м 8/5 450 м
[Sc As op Ci sp]
+14.6 +22.3 100 +14 +14 1012.4 1010.0
18 16.04 штиль 0 6000 м 8/5 450 м
[Sc As op Ci sp]
+23.2 +22.6 96 +32 +32 очень
душно
1011.1 1008.7
21 16.04 штиль 0 6000 м 8/5 450 м
[Sc As op Ci sp]
+22.6 +22.3 98 +30 +30 очень
душно
1009.9 1007.5
00 17.04 штиль 0 5000 м мгла 8/6 450 м
[Sc As op Ci sp]
+23.0 +22.7 98 +32 +32 очень
душно
1010.7 1008.3 +22.2 25
03 17.04 штиль 0 6000 м 9/6 450 м
[Sc As op Ci sp]
+25.6 +24.1 91 +35 +40 очень
душно
1011.2 1008.8
06 17.04 штиль 0 8000 м 9/6 450 м
[Cu med, cong As op Ci sp]
+31.8 +25.0 67 +45 +52 опасность
перегрева
1008.8 1006.4
09 17.04 штиль 0 8000 м 9/6 450 м
[Sc As op Ci sp]
+33.2 +24.3 60 +46 +48 опасность
перегрева
1006.5 1004.1
12 17.04 штиль 0 6000 м 9/6 450 м
[Cu med, cong As op Ci sp]
+29.8 +25.5 78 +44 +44 опасность
перегрева
1008.0 1005.6 +33.4
15 17.04 штиль 0 6000 м 9/6 450 м
[Sc As op Ci sp]
+27.0 +24.4 86 +38 +38 очень
душно
1010.3 1008.0
18 17.04 штиль 0 6000 м 9/6 450 м
[Sc As op Ci sp]
+25.8 +24.6 93 +36 +36 очень
душно
1009.1 1006.7
21 17.04 штиль 0 6000 м 9/6 450 м
[Sc As op Ci sp]
+24.8 +24.2 96 +34 +34 очень
душно
1007.8 1005.4
00 18.04 штиль 0 5000 м мгла 8/5 450 м
[Sc As op Ci sp]
+24.6 +24.1 97 +34 +34 очень
душно
1009.2 1006.8 +23.0
03 18.04 штиль 0 7000 м 9/6 450 м
[Sc As op Ci sp]
+30.8 +24.5 69 +43 +48 опасность
перегрева
1010.4 1008.0
06 18.04 штиль 0 8000 м 9/6 450 м
[Cu med, cong As op Ci sp]
+33.0 +24.4 61 +46 +52 опасность
перегрева
1008.7 1006.3
09 18.04 штиль 0 8000 м 9/6 450 м
[Cu med, cong As op Ci sp]
+34.2 +24.5 57 +47 +49 опасность
перегрева
1005.2 1002.8
12 18.04 штиль 0 6000 м {дождь} 9/6 400 м
[Cu med, cong As op Ci sp]
+28.0 +24.8 83 +40 +40 очень
душно
1007.4 1005.0 +34.8 0.0

 

Местоположение метеостанции Аэропорт Япура (Индонезия): широта -0.33 долгота 102.31 высота над уровнем моря 46 м.

В архиве по умолчанию представлена погода в Аэропорту Япура за последнюю неделю. Архивные данные за месяц целиком и за предыдущие месяцы, начиная с января 2011 года, Вы можете получить, выбрав интересующий диапазон дат из раскрывающегося списка и нажав кнопку "Ввод!".


*Определитесь, кто Вы:
робот инопланетянин человек

Внимание! Время в таблицах - всемирное. Для получения местного времени необходимо прибавить поправку, которая равна 7 ч.

Смотрите также архив погоды в соседних городах и на ближайших метеорологических станциях:

Погода в Пеканбару (Индонезия) (131 км)
Погода в Джамби (Индонезия) (208 км)
Погода в Паданге (Индонезия) (226 км)
Погода в Аэропорту Дабо (Индонезия) (253 км)
Погода в Аэропорту Ханга Надима (Индонезия) (257 км)
Погода в Сингапуре (Сингапур) (265 км)
Погода в Аэропорту Сеная (Малайзия) (265 км)
Погода в Танджунгпинанге (Индонезия) (283 км)
Погода в Малакке (Малайзия) (289 км)
Погода на Керинчи (Индонезия) (291 км)

Пояснения к столбцам:

Ветер - указаны скорость ветра в м/с - средняя за 10 мин, порывы в срок и между сроками (в фигурных скобках) и направление, откуда дует ветер: С - северный, СВ - северо-восточный, В - восточный, ЮВ - юго-восточный, Ю - южный, ЮЗ - юго-западный, З - западный, СЗ - северо-западный.
Видимость - горизонтальная дальность видимости в метрах или километрах. При видимости от 1 до 10 км при отсутствии осадков обычно наблюдается дымка, при ухудшении видимости до 1 км и менее - туман. В сухую погоду видимость может ухудшаться дымом, пылью или мглою.
Явления - указаны атмосферные явления, наблюдавшиеся в срок или в последний час перед сроком; фигурными скобками обозначены явления, наблюдавшиеся между сроками (за 1-3 часа до срока); квадратными скобками обозначены град или гололедные отложения с указанием их диаметра в мм.
Облачность - указаны через наклонную черту общая и нижняя облачность в баллах и высота нижней границы облаков в метрах; квадратными скобками обозначены формы облаков: Ci - перистые, Cs - перисто-слоистые, Cc - перисто-кучевые, Ac - высококучевые, As - высокослоистые, Sc - слоисто-кучевые, Ns - слоисто-дождевые, Cu - кучевые, Cb - кучево-дождевые. Подробнее классификацию облаков см. в Атласе облаков (PDF).
T - Температура воздуха - температура, измеренная на высоте 2 м над землей.
Td - Температура точки росы - температура, при понижении до которой содержащийся в воздухе водяной пар достигнет насыщения.
f - Относительная влажность воздуха - влажноcть воздуха, измеренная на высоте 2 м над землей.
Te - Эффективная температура - температура, которую ощущает одетый по сезону человек в тени. Характеристика душности погоды. При расчете учитывается влияние влажности воздуха и скорости ветра на теплоощущения человека.
Tes - Эффективная температура на солнце - температура, которую ощущает человек, с поправкой на солнечный нагрев. Характеристика знойности погоды. Зависит от высоты солнца над горизонтом, облачности и скорости ветра. Ночью, в пасмурную погоду, а также при ветре 12 м/с и более поправка равна нулю.
P - Атмосферное давление - приведенное к уровню моря атмосферное давление.
Po - Атмосферное давление - измеренное на уровне метеостанции атмосферное давление.
Tmin - Минимальная температура - минимум температуры воздуха на высоте 2 м над землей.
Tmax - Максимальная температура - максимум температуры воздуха на высоте 2 м над землей.
R - Количество осадков - Количество выпавших осадков за период времени, мм. При наведении курсора мыши на число - период времени, за который выпало указанное количество осадков.
R24 - Количество осадков - Количество выпавших осадков за 24 часа, мм.
S - Снежный покров - Высота снежного покрова, см. При наведении курсора мыши на число - состояние снежного покрова и степень покрытия местности в баллах.